Zurück zum Katalog

DELTA 1 DEB

AktivLEO
NORAD 7075·DEBRIS·🇺🇸 United States

Gestartet Nov 6, 1973 von Vandenberg Space Force Base

Loading…

Nächste Überflüge (nächste 24 Stunden)

TLE

AktuellSource: Space-Track

Epoche: Sep 14, 2026, 06:07 UTC

1 07075U 73086BT  26257.25530463  .00001722  00000-0  55338-2 0  9991
2 07075 101.5981 168.9090 0161493 127.1077  25.8110 13.00007180477597

Verfolge DELTA 1 DEB in Echtzeit mit AllMySat

Download on the App Store